TITAN 3C TRANSTAGE R/B, 2222

Orbit data source: Space-Track

TITAN 3C TRANSTAGE R/B, 2222 is space debris in GEO originally from a launch on Thu, 16 Jun 1966 UTC launched from the Air Force Eastern Test Range (AFETR). Debris objects in space refer to the collection of defunct objects orbiting the Earth. Examples of debris include non-operational satellites, rocket bodies, and fragments generated from explosions, collisions, or faulty payload assembly.

Not visible in the next 10 days
Identifier
2222, 1966-053J
Orbit
GEO
Last TLE update
1 day ago
Origin
Manufacturer
Martin Marietta
Mission
Spacecraft
Bus & Motor
TRANSTAGE, Unknown motor
Mass
2,050 kg wet, 2,050 kg dry
Launch date (UTC)
1966-06-16 (59 years ago)
Launch vehicle
Unknown
Launch site
Air Force Eastern Test Range (AFETR)
Object type
Payload
Rocket body
Debris
Shape & HBR
Cyl + 2 Nozzle, 4.6 m
Radar Cross Section
14.974 m², Large (>1 m²)

Expand to show TLE details & history

TLE from 1 day ago
0 TITAN 3C TRANSTAGE R/B
1 02222U 66053J   25128.69579205 -.00000106  00000-0  00000-0 0  9997
2 02222   7.6105  51.6776 0162151 159.0880  45.0225  1.06721183126060
Epoch: 2025-05-08T16:41Z
Definitive object data (Epoch: 2025-05-08T16:41:56.433Z)
Latitude
-3.27428°
Longitude
139.68817°
Altitude
33,609.285 km
Speed
3.175 km/s
True Right ascension
17h 07m 44s
True Declination
-3° 16' 15"
Sunlit
Object was in daylight at TLE epoch
Visualization TLE readout
Latitude
-5.13401°
Longitude
156.56731°
Altitude
33,764.65 km
Speed
3.163 km/s
Apparent Right ascension
17h 47m 28s
Apparent Declination
-10° 43' 06"
Sunlit
Object is in daylight
Visualization observer readout
Local Sidereal Time
00:23:56
Azimuth
267.48° W
Elevation
-13.815°
Doppler factor
1
Orbital elements
Apogee altitude
34,727.248 km
Perigee altitude
33,415.463 km
Semi-major axis
40,449.492 km
Eccentricity
0.0162151
Inclination
7.6105°
RAAN
51.6776°
Arg. of periapsis
159.088°
True anomaly
46.35587°
Mean anomaly
45.0225°
Eccentric anomaly
45.68728°
Mean motion
0.26679 °/min
BSTAR
Unknown
Orbital period
1349.36 mins
Loading historical data...
2222 neighbors
Loading maneuver chart data...
Loading SW <> Apogee altitude chart data...
Loading historical data...
Loading historical data...
Loading historical data...
Loading historical data...
Loading historical data...
Loading historical data...
Loading historical data...

TITAN 3C TRANSTAGE R/B Visibility forecast

Observer location: undefined°, undefined°

TITAN 3C TRANSTAGE R/B is not visible in the next 10 days
Span
Click to sort rows by Start time (UTC) header in descending order
Start Az.
Max El. time (UTC)
Max El. Az.
Max El.
End time (UTC)
End Az.
|